Back to catalog

STARLINK-35171

AliveCommunicationsSSO
NORAD 65605·PAYLOAD·🇺🇸 United States

Launched Sep 13, 2025 from Cape Canaveral Space Force Station

Loading…

Next Passes (next 24 hours)

TLE

FreshSource: CelesTrak SupGP

Epoch: Sep 14, 2026, 14:27 UTC

1 65605C 25207P   26257.60256944  .02361700  00000+0  12403+0 0  2570
2 65605  97.2840 320.3313 0001643  89.3315 205.2598 15.14605994    18

Track STARLINK-35171 in real time with AllMySat

Download on the App Store